SCP
0 0 0 0 0 0 0 0 0 0 0 0 0 0 0 0 0 0 0 0 0 0 0 0 0 0 0 0 0 0 0 0 0 0 0 0 0 0 0 0 0 0 0 0 0 0 0
0 0 0 0 0 0 0 0 0 0 0 0 0 0 0 0 0 0 0 0 0 0 0 0 0 0 0 0 0 0 0 0 0 0 0 0 0 0 0 0 0 0 0 0 0 0 0
0 0 0 0 0 0 0 0 0 0 0 0 0 0 0 0 0 0 0 0 0 0 0 0 0 0 0 0 0 0 0 0 0 0 0 0 0 0 0 0 0 0 0 0 0 0 0
0 0 0 0 0 0 0 0 0 0 0 0 0 0 0 0 0 0 0 0 0 0 0 0 0 0 0 0 0 0 0 0 0 0 0 0 0 0 0 0 0 0 0 0 0 0 0
0 0 0 0 0 0 0 0 0 0 0 0 0 0 0 0 0 0 0 0 0 0 0 0 0 0 0 0 0 0 0 0 0 0 0 0 0 0 0 0 0 0 0 0 0 0 0
0 0 0 0 0 0 0 0 0 0 0 0 0 0 0 0 0 0 0 0 0 0 0 0 0 0 0 0 0 0 0 0 0 0 0 0 0 0 0 0 0 0 0 0 0 0 0
0 0 0 0 0 0 0 0 0 0 0 0 0 0 0 0 0 0 0 0 0 0 0 0 0 0 0 0 0 0 0 0 0 0 0 0 0 0 0 0 0 0 0 0 0 0 0
0 0 0 0 0 0 0 0 0 0 0 0 0 0 0 0 0 0 0 0 0 0 0 0 0 0 0 0 0 0 0 0 -0 0 -0 0 0 -0 0 0 0 0 0 0 0 0 0
0 0 0 0 0 0 0 0 0 0 0 0 0 0 0 0 0 0 0 0 0 0 0 0 0 0 0 0 0 0 0 0 -0 -0 0 0 -0 -0 -0 -0 0 0 0 0 0 0 0
0 0 0 0 0 0 0 0 0 0 0 0 0 0 0 0 0 0 0 0 0 0 0 0 0 0 0 0 0 -0 0 -0 -0 0 0 -0 -0 0 0 0 -0 0 0 0 0 0 0
0 0 0 0 0 0 0 0 0 0 0 0 0 0 0 0 0 0 0 0 0 0 0 0 0 0 0 0 0 0 -0 -0 0 0 0 0 0 0 0 0 0 0 0 0 0 0 -0
0 0 0 0 0 0 0 0 0 0 0 0 0 0 0 0 0 0 0 0 0 0 0 0 0 0 0 0 0 0 0 0 0 0 0 0 0 -0 0 -0 -0 -0 -0 -0 0 0 0
0 0 0 0 0 0 0 0 0 0 0 0 0 0 0 0 0 0 0 0 0 0 0 0 0 0 0 0 0 0 0 0 0 0 0 0 0 -0 -0 0 0 0 -0 0 0 0 0
0 0 0 0 0 0 0 0 0 0 0 0 0 0 0 0 0 0 0 0 0 0 0 0 0 0 0 0 0 0 0 0 -0 0 0 0 0 0 0 0 0 -0 0 0 0 0 0
0 0 0 -0 0 0 0 0 0 0 0 0 0 0 0 0 0 0 0 0 0 0 0 0 0 0 0 0 0 0 0 -0 -0 -0 0 0 -0 -0 -0 -0 -0 0 0 -0 0 0 0
0 0 -0 -0 -0 0 -0 -0 0 0 0 0 0 0 0 0 0 0 0 0 0 0 0 0 -0 -0 -0 -0 -0 0 0 -0 -0 -0 -0 0 -0 -0 -0 0 0 0 0 -0 0 0 0
0 0 0 -0 -0 0 -0 -0 0 0 -0 0 0 0 0 0 0 0 0 0 0 -0 -0 -0 -0 -0 -0 0 -0 0 0 0 -0 0 -0 -0 0 -0 -0 0 -0 -0 0 0 0 0 0
0 -0 0 -0 0 -0 -0 0 0 -0 -0 0 0 0 0 -0 0 0 0 0 -0 -0 -0 -0 -0 -0 -0 0 -0 -0 0 0 0 -0 -0 0 0 0 -0 -0 -0 -0 0 0 0 0 0
-0 -0 -0 0 0 0 0 -0 -0 -0 0 0 0 0 0 0 0 0 0 -0 -0 -0 -0 -0 -0 -0 0 0 -0 0 0 0 0 -0 -0 0 0 -0 -0 -0 0 -0 -0 -0 0 0 0
-0 -0 0 0 0 0 0 0 -0 0 0 0 0 0 0 0 0 0 -0 -0 -0 -0 -0 -0 -0 -0 -0 0 0 0 -0 0 -0 -0 -0 0 0 0 0 0 0 0 -0 -0 -0 0 0
0 0 0 0 0 0 0 0 0 0 0 0 0 0 0 0 0 0 -0 -0 -0 -0 -0 -0 -0 0 0 0 0 0 0 0 0 -0 -0 0 0 0 0 0 0 0 -0 -0 -0 -0 0
0 0 0 0 0 0 0 0 0 0 0 -0 0 0 0 0 0 0 -0 -0 0 -0 -0 -0 -0 -0 0 0 0 0 0 0 0 0 0 -0 0 0 0 0 -0 -0 -0 -0 -0 -0 -0
0 0 0 0 0 0 0 0 0 0 -0 -0 -0 0 -0 -0 -0 -0 -0 -0 -0 -0 -0 -0 0 0 0 0 0 0 -0 -0 -0 -0 0 0 0 0 -0 -0 -0 -0 -0 0 -0 -0 0
0 0 0 0 0 0 0 0 0 -0 -0 -0 0 0 -0 -0 -0 -0 -0 0 -0 -0 -0 -0 0 0 0 0 0 0 0 0 0 0 -0 0 0 -0 -0 -0 -0 -0 -0 0 -0 -0 -0
0 0 0 0 0 0 0 0 0 0 0 0 0 -0 -0 -0 -0 -0 0 0 -0 -0 -0 -0 0 0 0 0 0 0 0 0 0 0 0 0 0 0 0 -0 -0 0 -0 0 0 -0 -0
0 0 0 0 0 0 0 0 -0 -0 -0 0 0 0 -0 -0 0 0 0 -0 -0 -0 -0 -0 -0 -0 0 0 0 0 0 0 0 0 0 0 0 0 -0 -0 0 0 -0 0 -0 -0 -0
0 0 0 0 0 0 0 -0 -0 0 0 0 0 0 -0 -0 -0 0 0 -0 -0 -0 -0 -0 -0 -0 -0 0 0 0 0 0 0 0 0 0 0 0 0 -0 -0 -0 -0 -0 -0 -0 0
0 0 0 0 0 -0 -0 -0 0 0 0 0 0 0 0 -0 0 -0 0 0 -0 -0 -0 -0 -0 -0 -0 0 0 0 0 0 0 0 0 0 0 0 0 0 0 0 -0 -0 -0 -0 -0
0 0 0 0 -0 -0 -0 0 0 0 0 0 0 0 0 -0 -0 -0 -0 -0 -0 -0 -0 -0 0 0 0 0 0 0 0 0 0 0 0 0 0 0 0 0 0 -0 -0 -0 -0 -0 -0
Wind_Speed_500mb
90 82 77 72 67 64 61 57 54 51 46 44 40 36 32 30 28 28 31 34 33 42 49 54 54 51 43 20 30 45 47 51 52 56 38 31 28 31 30 19 19 42 52 65 66 56 54
92 86 78 72 70 65 63 58 54 48 44 42 41 36 32 29 29 30 33 36 39 47 50 49 46 41 34 13 14 23 32 41 37 40 40 27 17 23 41 45 36 34 53 64 67 56 52
92 89 80 74 70 65 63 57 52 46 45 43 38 33 31 32 33 33 37 40 43 46 44 43 41 36 30 31 21 16 13 17 17 24 28 27 29 24 24 21 36 58 56 59 65 60 49
93 89 80 75 70 64 62 56 51 49 46 42 39 36 35 34 34 33 39 41 41 42 41 38 35 25 9 10 26 19 22 26 27 36 37 32 25 30 34 37 53 41 34 38 50 33 26
99 92 81 76 72 65 61 57 55 51 46 42 40 37 39 36 31 34 35 36 36 33 23 19 12 6 2 6 20 30 40 31 36 28 23 28 24 18 18 22 33 29 39 51 75 44 47
96 85 74 71 68 66 65 62 58 50 46 47 38 41 43 33 31 29 25 23 18 10 9 12 13 8 18 16 19 23 41 28 32 27 14 18 3 6 11 14 33 42 31 45 55 44 34
96 80 77 83 76 72 69 64 56 53 48 42 39 43 35 32 21 16 13 5 2 4 21 9 4 11 23 25 18 24 55 20 28 12 13 8 6 16 29 33 48 50 53 58 60 58 49
100 100 99 91 83 77 70 59 55 50 46 47 42 38 21 18 13 6 2 10 7 5 15 21 26 22 26 27 11 40 50 25 8 13 10 9 19 24 28 32 36 39 44 55 50 53 49
105 102 100 92 83 75 67 60 53 50 49 44 32 20 19 16 8 10 12 18 12 12 13 11 6 15 35 21 8 34 43 29 9 9 18 20 28 36 37 36 40 43 42 46 56 58 57
108 103 99 90 82 74 63 59 53 52 43 31 25 23 20 17 15 16 17 16 10 13 9 15 9 11 38 14 11 16 40 13 6 16 17 17 12 26 34 42 42 45 42 53 50 43 39
108 103 96 85 78 72 66 58 55 48 33 32 30 25 24 13 18 19 16 11 6 6 5 15 7 9 30 16 20 19 39 15 13 24 9 18 33 33 38 37 42 49 47 48 51 47 42
104 96 93 83 72 70 69 60 58 41 43 39 30 28 26 24 22 20 13 9 7 10 3 8 7 16 17 10 26 23 19 27 16 8 18 41 51 32 39 44 43 41 44 51 49 36 27
106 104 92 71 69 77 70 64 52 52 47 40 34 32 28 24 24 15 14 10 9 10 8 9 8 16 12 13 17 21 22 25 11 19 37 41 27 25 15 33 27 12 25 15 9 9 22
106 98 80 79 91 87 71 54 61 58 51 46 44 37 35 30 20 11 13 8 16 10 5 2 6 14 12 18 8 18 27 20 9 18 25 20 38 17 33 27 22 36 18 11 12 19 42
98 95 96 93 88 67 61 72 64 59 58 55 49 43 34 25 13 11 9 12 10 8 3 9 11 5 6 18 8 14 16 5 5 5 19 14 18 35 23 35 15 12 20 32 15 32 18
104 109 99 90 72 82 82 72 66 62 59 57 56 45 29 20 15 13 12 11 6 5 4 5 1 3 5 14 15 15 7 5 9 5 8 9 24 13 31 16 10 10 29 10 8 12 8
100 98 94 91 89 83 75 73 67 69 67 62 44 17 14 19 17 22 8 7 6 3 4 6 5 3 7 7 21 11 7 13 2 26 32 21 10 22 26 9 24 24 15 8 10 11 7
108 94 91 89 84 79 75 74 75 78 71 44 17 7 9 8 14 7 5 13 8 3 4 2 4 8 5 8 14 9 9 11 29 27 27 6 9 18 41 28 10 26 18 20 9 12 4
98 93 88 82 80 77 77 76 79 77 67 37 17 13 14 7 8 4 7 8 6 4 3 5 2 2 1 3 9 7 9 15 35 25 8 9 7 18 27 10 11 15 39 38 32 16 7
93 89 87 84 80 76 73 74 78 76 53 33 18 6 11 22 18 12 12 7 6 5 5 3 2 2 8 7 6 10 15 16 42 28 26 10 6 9 12 26 28 27 45 50 36 11 24
92 91 85 81 78 74 72 73 74 71 50 19 8 5 8 6 6 10 7 8 8 6 5 1 2 2 7 7 10 4 19 29 16 12 11 11 8 10 26 33 22 21 48 54 48 42 27
91 85 82 79 75 71 65 64 67 65 50 10 13 16 19 13 22 15 5 3 7 5 3 2 3 12 4 7 11 15 19 9 9 14 17 7 7 13 11 14 9 41 49 45 54 43 38
88 83 77 71 67 63 59 56 61 58 47 10 24 43 27 4 9 9 8 8 8 3 5 10 6 10 5 10 18 37 37 40 36 18 11 11 10 11 11 36 11 15 38 32 35 42 29
81 76 70 65 60 55 51 48 49 49 45 15 53 39 18 6 4 7 13 8 6 4 1 7 12 4 5 41 33 7 9 18 17 16 26 10 15 5 10 20 12 5 31 16 38 37 38
75 70 65 60 54 50 46 41 37 34 28 25 56 21 16 8 13 12 19 13 4 1 2 6 7 12 29 15 7 7 7 6 4 6 10 14 6 7 8 11 5 13 30 13 13 25 32
70 66 61 57 52 47 43 40 37 35 35 42 37 20 20 29 11 20 13 13 5 2 4 6 10 15 21 6 6 7 8 7 9 21 4 8 6 3 6 6 13 18 36 32 5 21 33
68 62 58 53 49 45 41 38 37 35 33 31 32 27 21 21 27 28 8 11 13 8 1 7 11 14 20 6 7 6 3 4 8 13 12 11 8 9 6 4 5 17 41 11 13 9 29
62 57 54 51 47 42 38 34 33 31 29 27 30 23 17 17 32 19 27 24 17 8 4 1 3 9 7 7 3 0 2 4 5 7 9 8 8 6 4 6 7 27 19 10 6 14 18
58 55 50 46 41 38 35 32 30 27 24 25 29 26 28 19 19 25 21 19 13 10 7 4 7 4 5 6 3 2 2 1 1 5 3 3 1 4 5 4 9 17 12 15 13 13 14
Wind_Direction_500mb
219 216 214 213 214 217 219 219 222 224 226 234 239 247 252 257 265 282 292 301 299 300 302 302 301 303 307 296 261 265 266 262 272 279 280 281 267 262 251 247 257 245 258 265 271 271 272
219 217 214 214 213 215 219 219 222 225 228 231 236 242 249 260 269 283 289 287 291 295 297 299 298 297 299 257 257 267 280 284 286 287 292 291 269 268 275 264 252 272 280 277 270 271 275
217 216 213 213 214 215 219 220 222 223 230 233 237 240 248 259 273 286 288 292 297 301 305 305 294 293 286 279 308 323 336 353 349 331 317 304 282 272 315 295 280 271 273 270 267 270 259
217 214 211 213 216 214 217 217 219 220 225 229 232 242 246 260 275 285 291 294 300 304 300 291 286 283 249 90 24 353 327 314 309 300 298 297 303 272 261 279 285 286 287 283 270 268 255
214 212 209 210 210 210 214 215 218 220 222 226 236 245 252 260 274 283 288 300 307 299 297 297 301 252 195 85 32 38 20 6 8 13 336 279 278 256 266 267 277 246 261 260 281 262 267
210 207 207 207 206 209 212 213 219 218 223 229 243 246 253 256 271 283 294 297 301 291 22 79 75 122 39 358 39 24 11 0 3 4 14 10 320 272 280 268 261 274 273 279 273 290 325
208 209 221 212 207 209 212 213 213 219 227 239 242 249 249 266 264 266 278 288 162 215 51 37 27 99 25 13 39 32 13 8 356 5 355 324 266 253 266 255 263 276 280 276 276 275 281
205 210 205 202 203 207 209 212 212 224 232 232 233 240 246 235 234 241 142 160 147 92 94 65 92 64 17 3 337 6 357 15 328 324 310 312 285 272 272 283 274 270 278 276 283 281 272
204 198 200 200 202 205 206 209 219 226 230 233 226 215 210 204 178 151 118 111 114 81 87 54 59 25 10 346 6 339 353 341 286 291 315 286 272 286 284 281 276 262 259 281 275 285 286
199 195 198 200 200 201 202 212 215 222 217 215 189 188 189 178 180 119 87 97 94 91 86 343 10 28 6 8 17 8 350 340 314 310 317 286 279 302 294 283 270 273 269 273 272 275 277
194 194 196 196 196 199 204 203 216 210 205 172 170 160 161 170 142 100 109 102 92 100 50 334 23 10 7 61 328 333 353 348 299 312 298 294 304 307 297 275 280 273 280 279 280 272 279
190 193 195 194 195 200 202 210 202 182 166 160 151 150 157 135 111 110 120 123 109 51 239 357 36 342 359 1 336 323 344 357 315 319 310 293 297 282 267 281 282 278 281 281 272 257 256
189 191 192 192 205 200 201 193 174 162 157 154 143 146 144 128 108 105 121 129 59 86 262 14 343 337 329 352 348 349 343 0 14 346 342 323 325 307 296 311 324 297 305 291 268 225 256
190 188 194 204 203 201 194 168 157 160 153 147 139 138 126 116 106 110 146 71 73 246 30 8 343 332 353 5 349 327 345 0 31 21 326 340 316 346 328 307 288 288 262 254 304 291 297
183 194 198 197 196 180 171 155 159 159 151 143 139 131 114 105 104 128 151 56 160 198 78 0 341 7 329 349 0 346 337 305 255 17 6 317 287 312 318 314 302 329 297 310 268 268 271
188 190 192 184 174 156 157 159 158 154 152 145 141 116 97 91 90 123 78 117 126 172 91 104 135 9 337 337 340 342 318 244 303 230 359 289 290 294 335 341 119 323 293 327 292 292 301
182 194 179 159 154 157 155 154 159 155 149 143 127 89 103 92 84 77 94 109 127 211 199 160 177 300 262 333 324 314 281 297 261 334 329 296 264 300 330 347 302 346 321 294 259 243 291
187 164 154 149 154 157 154 156 159 156 151 145 104 87 113 96 55 50 88 134 136 115 59 76 169 228 244 345 299 301 289 298 305 330 327 335 290 312 311 295 246 347 294 290 262 274 261
159 150 149 149 154 157 159 159 159 159 154 142 93 99 56 54 111 85 112 95 102 130 161 145 145 126 298 317 312 299 304 289 312 332 325 330 340 319 337 359 314 344 341 335 320 275 298
143 147 147 152 156 157 158 161 161 159 153 146 132 105 54 66 88 108 111 85 118 67 81 60 251 290 335 309 260 288 303 310 317 303 309 16 261 244 274 277 304 311 358 2 5 349 47
145 150 151 153 154 156 158 160 163 165 166 162 108 108 138 126 72 107 106 130 134 110 85 264 175 79 27 311 318 256 315 326 328 319 10 338 269 270 272 287 329 344 6 13 20 21 53
149 149 151 151 152 154 156 158 165 172 177 159 126 139 85 83 119 112 26 173 115 106 145 173 208 320 234 203 217 292 317 330 301 333 345 0 280 313 298 335 314 23 11 21 24 21 41
149 147 146 147 149 150 155 159 170 177 177 158 125 124 120 95 139 136 171 163 119 123 206 240 292 316 264 255 286 281 271 264 264 296 307 319 314 327 300 337 92 4 3 23 33 24 18
142 142 142 142 144 148 154 161 167 175 184 182 150 133 108 137 148 132 143 113 143 179 256 277 303 243 289 313 313 303 265 246 237 251 237 294 320 326 297 342 55 166 12 23 57 27 17
139 138 138 138 141 146 152 157 161 170 184 181 157 143 127 121 142 130 140 119 120 237 190 270 290 311 321 340 16 17 357 4 347 45 35 219 313 317 338 340 313 16 1 357 47 37 16
137 136 136 136 137 137 141 144 144 145 144 168 164 151 131 126 220 143 129 120 134 91 21 277 324 336 356 58 53 48 33 327 332 343 99 118 34 50 357 20 6 356 337 341 297 45 4
138 137 135 135 134 135 132 132 134 138 145 166 145 139 131 102 154 142 126 137 136 107 152 305 340 4 10 37 56 43 28 322 346 332 337 353 355 25 12 24 286 331 341 343 51 353 339
137 137 136 135 135 134 136 137 136 139 140 147 133 130 121 102 156 157 138 139 134 141 141 259 81 23 45 66 73 142 281 0 298 288 329 360 351 354 339 4 351 1 354 42 295 319 355
137 137 135 134 134 135 135 137 140 145 147 149 139 132 122 117 146 165 155 158 146 153 133 79 109 125 147 96 200 256 258 270 259 315 260 349 186 292 228 252 254 303 278 313 300 312 350
Wind_Speed_850mb
90 82 77 72 67 64 61 57 54 51 46 44 40 36 32 30 28 28 31 34 33 42 49 54 54 51 43 20 30 45 47 51 52 56 38 31 28 31 30 19 19 42 52 65 66 56 54
92 86 78 72 70 65 63 58 54 48 44 42 41 36 32 29 29 30 33 36 39 47 50 49 46 41 34 13 14 23 32 41 37 40 40 27 17 23 41 45 36 34 53 64 67 56 52
92 89 80 74 70 65 63 57 52 46 45 43 38 33 31 32 33 33 37 40 43 46 44 43 41 36 30 31 21 16 13 17 17 24 28 27 29 24 24 21 36 58 56 59 65 60 49
93 89 80 75 70 64 62 56 51 49 46 42 39 36 35 34 34 33 39 41 41 42 41 38 35 25 9 10 26 19 22 26 27 36 37 32 25 30 34 37 53 41 34 38 50 33 26
99 92 81 76 72 65 61 57 55 51 46 42 40 37 39 36 31 34 35 36 36 33 23 19 12 6 2 6 20 30 40 31 36 28 23 28 24 18 18 22 33 29 39 51 75 44 47
96 85 74 71 68 66 65 62 58 50 46 47 38 41 43 33 31 29 25 23 18 10 9 12 13 8 18 16 19 23 41 28 32 27 14 18 3 6 11 14 33 42 31 45 55 44 34
96 80 77 83 76 72 69 64 56 53 48 42 39 43 35 32 21 16 13 5 2 4 21 9 4 11 23 25 18 24 55 20 28 12 13 8 6 16 29 33 48 50 53 58 60 58 49
100 100 99 91 83 77 70 59 55 50 46 47 42 38 21 18 13 6 2 10 7 5 15 21 26 22 26 27 11 40 50 25 8 13 10 9 19 24 28 32 36 39 44 55 50 53 49
105 102 100 92 83 75 67 60 53 50 49 44 32 20 19 16 8 10 12 18 12 12 13 11 6 15 35 21 8 34 43 29 9 9 18 20 28 36 37 36 40 43 42 46 56 58 57
108 103 99 90 82 74 63 59 53 52 43 31 25 23 20 17 15 16 17 16 10 13 9 15 9 11 38 14 11 16 40 13 6 16 17 17 12 26 34 42 42 45 42 53 50 43 39
108 103 96 85 78 72 66 58 55 48 33 32 30 25 24 13 18 19 16 11 6 6 5 15 7 9 30 16 20 19 39 15 13 24 9 18 33 33 38 37 42 49 47 48 51 47 42
104 96 93 83 72 70 69 60 58 41 43 39 30 28 26 24 22 20 13 9 7 10 3 8 7 16 17 10 26 23 19 27 16 8 18 41 51 32 39 44 43 41 44 51 49 36 27
106 104 92 71 69 77 70 64 52 52 47 40 34 32 28 24 24 15 14 10 9 10 8 9 8 16 12 13 17 21 22 25 11 19 37 41 27 25 15 33 27 12 25 15 9 9 22
106 98 80 79 91 87 71 54 61 58 51 46 44 37 35 30 20 11 13 8 16 10 5 2 6 14 12 18 8 18 27 20 9 18 25 20 38 17 33 27 22 36 18 11 12 19 42
98 95 96 93 88 67 61 72 64 59 58 55 49 43 34 25 13 11 9 12 10 8 3 9 11 5 6 18 8 14 16 5 5 5 19 14 18 35 23 35 15 12 20 32 15 32 18
104 109 99 90 72 82 82 72 66 62 59 57 56 45 29 20 15 13 12 11 6 5 4 5 1 3 5 14 15 15 7 5 9 5 8 9 24 13 31 16 10 10 29 10 8 12 8
100 98 94 91 89 83 75 73 67 69 67 62 44 17 14 19 17 22 8 7 6 3 4 6 5 3 7 7 21 11 7 13 2 26 32 21 10 22 26 9 24 24 15 8 10 11 7
108 94 91 89 84 79 75 74 75 78 71 44 17 7 9 8 14 7 5 13 8 3 4 2 4 8 5 8 14 9 9 11 29 27 27 6 9 18 41 28 10 26 18 20 9 12 4
98 93 88 82 80 77 77 76 79 77 67 37 17 13 14 7 8 4 7 8 6 4 3 5 2 2 1 3 9 7 9 15 35 25 8 9 7 18 27 10 11 15 39 38 32 16 7
93 89 87 84 80 76 73 74 78 76 53 33 18 6 11 22 18 12 12 7 6 5 5 3 2 2 8 7 6 10 15 16 42 28 26 10 6 9 12 26 28 27 45 50 36 11 24
92 91 85 81 78 74 72 73 74 71 50 19 8 5 8 6 6 10 7 8 8 6 5 1 2 2 7 7 10 4 19 29 16 12 11 11 8 10 26 33 22 21 48 54 48 42 27
91 85 82 79 75 71 65 64 67 65 50 10 13 16 19 13 22 15 5 3 7 5 3 2 3 12 4 7 11 15 19 9 9 14 17 7 7 13 11 14 9 41 49 45 54 43 38
88 83 77 71 67 63 59 56 61 58 47 10 24 43 27 4 9 9 8 8 8 3 5 10 6 10 5 10 18 37 37 40 36 18 11 11 10 11 11 36 11 15 38 32 35 42 29
81 76 70 65 60 55 51 48 49 49 45 15 53 39 18 6 4 7 13 8 6 4 1 7 12 4 5 41 33 7 9 18 17 16 26 10 15 5 10 20 12 5 31 16 38 37 38
75 70 65 60 54 50 46 41 37 34 28 25 56 21 16 8 13 12 19 13 4 1 2 6 7 12 29 15 7 7 7 6 4 6 10 14 6 7 8 11 5 13 30 13 13 25 32
70 66 61 57 52 47 43 40 37 35 35 42 37 20 20 29 11 20 13 13 5 2 4 6 10 15 21 6 6 7 8 7 9 21 4 8 6 3 6 6 13 18 36 32 5 21 33
68 62 58 53 49 45 41 38 37 35 33 31 32 27 21 21 27 28 8 11 13 8 1 7 11 14 20 6 7 6 3 4 8 13 12 11 8 9 6 4 5 17 41 11 13 9 29
62 57 54 51 47 42 38 34 33 31 29 27 30 23 17 17 32 19 27 24 17 8 4 1 3 9 7 7 3 0 2 4 5 7 9 8 8 6 4 6 7 27 19 10 6 14 18
58 55 50 46 41 38 35 32 30 27 24 25 29 26 28 19 19 25 21 19 13 10 7 4 7 4 5 6 3 2 2 1 1 5 3 3 1 4 5 4 9 17 12 15 13 13 14
Wind_Direction_850mb
219 216 214 213 214 217 219 219 222 224 226 234 239 247 252 257 265 282 292 301 299 300 302 302 301 303 307 296 261 265 266 262 272 279 280 281 267 262 251 247 257 245 258 265 271 271 272
219 217 214 214 213 215 219 219 222 225 228 231 236 242 249 260 269 283 289 287 291 295 297 299 298 297 299 257 257 267 280 284 286 287 292 291 269 268 275 264 252 272 280 277 270 271 275
217 216 213 213 214 215 219 220 222 223 230 233 237 240 248 259 273 286 288 292 297 301 305 305 294 293 286 279 308 323 336 353 349 331 317 304 282 272 315 295 280 271 273 270 267 270 259
217 214 211 213 216 214 217 217 219 220 225 229 232 242 246 260 275 285 291 294 300 304 300 291 286 283 249 90 24 353 327 314 309 300 298 297 303 272 261 279 285 286 287 283 270 268 255
214 212 209 210 210 210 214 215 218 220 222 226 236 245 252 260 274 283 288 300 307 299 297 297 301 252 195 85 32 38 20 6 8 13 336 279 278 256 266 267 277 246 261 260 281 262 267
210 207 207 207 206 209 212 213 219 218 223 229 243 246 253 256 271 283 294 297 301 291 22 79 75 122 39 358 39 24 11 0 3 4 14 10 320 272 280 268 261 274 273 279 273 290 325
208 209 221 212 207 209 212 213 213 219 227 239 242 249 249 266 264 266 278 288 162 215 51 37 27 99 25 13 39 32 13 8 356 5 355 324 266 253 266 255 263 276 280 276 276 275 281
205 210 205 202 203 207 209 212 212 224 232 232 233 240 246 235 234 241 142 160 147 92 94 65 92 64 17 3 337 6 357 15 328 324 310 312 285 272 272 283 274 270 278 276 283 281 272
204 198 200 200 202 205 206 209 219 226 230 233 226 215 210 204 178 151 118 111 114 81 87 54 59 25 10 346 6 339 353 341 286 291 315 286 272 286 284 281 276 262 259 281 275 285 286
199 195 198 200 200 201 202 212 215 222 217 215 189 188 189 178 180 119 87 97 94 91 86 343 10 28 6 8 17 8 350 340 314 310 317 286 279 302 294 283 270 273 269 273 272 275 277
194 194 196 196 196 199 204 203 216 210 205 172 170 160 161 170 142 100 109 102 92 100 50 334 23 10 7 61 328 333 353 348 299 312 298 294 304 307 297 275 280 273 280 279 280 272 279
190 193 195 194 195 200 202 210 202 182 166 160 151 150 157 135 111 110 120 123 109 51 239 357 36 342 359 1 336 323 344 357 315 319 310 293 297 282 267 281 282 278 281 281 272 257 256
189 191 192 192 205 200 201 193 174 162 157 154 143 146 144 128 108 105 121 129 59 86 262 14 343 337 329 352 348 349 343 0 14 346 342 323 325 307 296 311 324 297 305 291 268 225 256
190 188 194 204 203 201 194 168 157 160 153 147 139 138 126 116 106 110 146 71 73 246 30 8 343 332 353 5 349 327 345 0 31 21 326 340 316 346 328 307 288 288 262 254 304 291 297
183 194 198 197 196 180 171 155 159 159 151 143 139 131 114 105 104 128 151 56 160 198 78 0 341 7 329 349 0 346 337 305 255 17 6 317 287 312 318 314 302 329 297 310 268 268 271
188 190 192 184 174 156 157 159 158 154 152 145 141 116 97 91 90 123 78 117 126 172 91 104 135 9 337 337 340 342 318 244 303 230 359 289 290 294 335 341 119 323 293 327 292 292 301
182 194 179 159 154 157 155 154 159 155 149 143 127 89 103 92 84 77 94 109 127 211 199 160 177 300 262 333 324 314 281 297 261 334 329 296 264 300 330 347 302 346 321 294 259 243 291
187 164 154 149 154 157 154 156 159 156 151 145 104 87 113 96 55 50 88 134 136 115 59 76 169 228 244 345 299 301 289 298 305 330 327 335 290 312 311 295 246 347 294 290 262 274 261
159 150 149 149 154 157 159 159 159 159 154 142 93 99 56 54 111 85 112 95 102 130 161 145 145 126 298 317 312 299 304 289 312 332 325 330 340 319 337 359 314 344 341 335 320 275 298
143 147 147 152 156 157 158 161 161 159 153 146 132 105 54 66 88 108 111 85 118 67 81 60 251 290 335 309 260 288 303 310 317 303 309 16 261 244 274 277 304 311 358 2 5 349 47
145 150 151 153 154 156 158 160 163 165 166 162 108 108 138 126 72 107 106 130 134 110 85 264 175 79 27 311 318 256 315 326 328 319 10 338 269 270 272 287 329 344 6 13 20 21 53
149 149 151 151 152 154 156 158 165 172 177 159 126 139 85 83 119 112 26 173 115 106 145 173 208 320 234 203 217 292 317 330 301 333 345 0 280 313 298 335 314 23 11 21 24 21 41
149 147 146 147 149 150 155 159 170 177 177 158 125 124 120 95 139 136 171 163 119 123 206 240 292 316 264 255 286 281 271 264 264 296 307 319 314 327 300 337 92 4 3 23 33 24 18
142 142 142 142 144 148 154 161 167 175 184 182 150 133 108 137 148 132 143 113 143 179 256 277 303 243 289 313 313 303 265 246 237 251 237 294 320 326 297 342 55 166 12 23 57 27 17
139 138 138 138 141 146 152 157 161 170 184 181 157 143 127 121 142 130 140 119 120 237 190 270 290 311 321 340 16 17 357 4 347 45 35 219 313 317 338 340 313 16 1 357 47 37 16
137 136 136 136 137 137 141 144 144 145 144 168 164 151 131 126 220 143 129 120 134 91 21 277 324 336 356 58 53 48 33 327 332 343 99 118 34 50 357 20 6 356 337 341 297 45 4
138 137 135 135 134 135 132 132 134 138 145 166 145 139 131 102 154 142 126 137 136 107 152 305 340 4 10 37 56 43 28 322 346 332 337 353 355 25 12 24 286 331 341 343 51 353 339
137 137 136 135 135 134 136 137 136 139 140 147 133 130 121 102 156 157 138 139 134 141 141 259 81 23 45 66 73 142 281 0 298 288 329 360 351 354 339 4 351 1 354 42 295 319 355
137 137 135 134 134 135 135 137 140 145 147 149 139 132 122 117 146 165 155 158 146 153 133 79 109 125 147 96 200 256 258 270 259 315 260 349 186 292 228 252 254 303 278 313 300 312 350